#timestamp,LO_Frequency,Hit,StdDev 
1536692415.7,286046997.0,N
1536692435.6,286047000.6,N
1536692455.4,286047000.9,N
1536692475.2,286046998.8,N
1536692495.1,286046997.4,N
1536692496.0,286046997.4,N
1536692515.8,286046995.5,N
1536692535.6,286046994.6,N
1536692555.5,286046993.6,N
1536692575.3,286046993.6,N
1536692595.2,286046995.7,N
1536692615.9,286046995.5,N
1536692635.7,286046995.4,N
1536692655.6,286046995.0,N
1536692675.4,286046997.1,N
1536692695.3,286046997.8,N
1536692715.1,286046998.1,N
1536692716.0,286046998.1,N
1536692735.8,286046999.6,N
1536692755.7,286046997.5,N
1536692775.5,286047001.1,N
1536692795.3,286047000.8,N
1536692815.2,286047000.6,N
1536692835.0,286046999.4,N
1536692835.9,286046999.4,N
1536692855.8,286047000.9,N
1536692875.6,286047000.5,N
1536692895.4,286047000.5,N
1536692915.3,286047000.0,N
1536692935.1,286047004.1,N
1536692955.9,286047002.4,N
1536692975.7,286047000.5,N
1536692995.5,286047000.3,N
1536693015.4,286046998.1,N
1536693035.2,286046996.8,N
1536693055.1,286047001.2,N
1536693056.0,286047001.2,N
1536693075.8,286046999.7,N
1536693095.6,286047002.2,N
1536693115.5,286047002.6,N
1536693135.3,286047000.2,N
1536693155.1,286047001.9,N
1536693175.9,286047001.5,N
1536693195.7,286047003.6,N
1536693215.6,286047001.5,N
1536693235.4,286047000.3,N
1536693255.2,286046999.3,N
1536693275.1,286046998.7,N
1536693276.0,286046998.7,N
1536693295.8,286046999.3,N
1536693315.6,286047002.4,N
1536693335.5,286047002.6,N
1536693355.3,286046999.9,N
1536693375.2,286047000.9,N
1536693395.9,286047002.1,N
1536693415.7,286047001.8,N
1536693435.6,286047000.2,N
1536693455.4,286047000.1,N
1536693475.2,286046999.9,N
1536693495.1,286047001.0,N
1536693496.0,286047001.0,N
1536693515.8,286047002.2,N
1536693535.7,286047004.4,N
1536693555.5,286047004.4,N
1536693575.3,286047002.8,N
1536693595.2,286047000.2,N
1536693615.9,286047002.2,N
1536693635.7,286047000.9,N
1536693655.6,286046998.1,N
1536693675.4,286047000.0,N
1536693695.3,286047000.3,N
1536693715.1,286046999.8,N
1536693716.0,286046999.8,N
1536693735.8,286047002.2,N
1536693755.7,286047003.5,N
1536693775.5,286047001.7,N
1536693795.3,286047003.2,N
1536693815.2,286047005.4,Y
1536693835.0,286047006.0,P
1536693835.9,286047006.0,N
1536693855.8,286047003.9,N
1536693875.6,286047001.7,N
1536693895.4,286047001.5,N
1536693915.3,286047001.7,N
1536693935.1,286047002.0,N
1536693955.8,286047001.4,N
1536693975.7,286047002.8,N
1536693995.5,286046999.8,N
1536694015.4,286047001.8,N
1536694035.2,286047001.0,N
1536694055.0,286047002.3,N
1536694055.9,286047002.3,N
1536694075.8,286047002.3,N
1536694095.6,286047002.2,N
1536694115.4,286047001.5,N
1536694135.3,286047001.0,N
1536694155.1,286047000.4,N
1536694175.9,286047002.5,N
1536694195.7,286046998.1,N
1536694215.5,286047000.8,N
1536694235.4,286047001.1,N
1536694255.2,286046998.9,N
1536694275.0,286047001.0,N
1536694275.9,286047001.0,N
1536694295.8,286047000.4,N
1536694315.6,286047002.4,N
1536694335.4,286047000.8,N
1536694355.3,286047000.5,N
1536694375.1,286046999.7,N
1536694395.9,286046999.9,N
1536694415.7,286047002.6,N
1536694435.5,286047003.6,Y
1536694455.4,286047000.1,P
1536694475.2,286046998.4,P
1536694495.1,286047000.0,N
1536694496.0,286047000.0,N
1536694515.8,286046998.5,N
1536694535.6,286046999.7,N
1536694555.5,286046999.7,N
1536694575.3,286047002.0,N
1536694595.1,286047000.1,N
1536694615.9,286046999.7,N
1536694635.7,286047000.6,N
1536694655.6,286046999.5,N
1536694675.4,286046996.9,Y
1536694695.2,286046998.2,P
1536694715.1,286047002.0,N
1536694716.0,286047002.0,N
1536694735.8,286047004.3,N
1536694755.6,286047001.6,N
1536694775.5,286046999.9,N
1536694795.3,286047002.5,N
1536694815.2,286047002.0,N
1536694835.9,286047002.2,N
1536694855.7,286047003.7,N
1536694875.6,286047003.1,N
1536694895.4,286047004.4,N
1536694915.2,286047002.0,N
1536694935.1,286046999.9,N
1536694936.0,286046999.9,N
1536694955.8,286046998.3,N
1536694975.7,286046999.0,N
1536694995.5,286046998.2,N
1536695015.3,286046998.2,N
1536695035.2,286047001.2,N
1536695055.0,286046999.1,N
1536695055.9,286046999.1,N
1536695075.7,286046997.0,N
1536695095.6,286046998.4,N
1536695115.4,286046996.5,N
1536695135.3,286046998.0,N
1536695155.1,286046995.5,N
1536695156.0,286046995.5,N
1536695175.8,286046995.1,N
1536695195.7,286046996.2,N
1536695215.5,286046995.3,N
1536695235.3,286046996.3,N
1536695255.2,286046995.9,N
1536695275.0,286046995.5,N
1536695275.9,286046995.5,N
1536695295.8,286046996.0,N
1536695315.6,286046998.0,N
1536695335.4,286046997.1,N
1536695355.3,286046998.9,N
1536695375.1,286047002.4,N
1536695395.8,286047002.6,N
1536695415.7,286047003.8,N
1536695435.5,286047003.1,N
1536695455.3,286047004.5,N
1536695475.2,286047007.2,N
1536695495.0,286047006.5,N
1536695495.9,286047006.5,N
1536695515.8,286047007.1,N
1536695535.6,286047003.8,N
1536695555.4,286047002.0,N
1536695575.3,286047002.5,N
1536695595.1,286047001.9,N
1536695615.8,286047003.6,N
1536695635.7,286047001.8,N
1536695655.5,286047002.0,N
1536695675.4,286047002.6,N
1536695695.2,286047003.7,N
1536695715.0,286047007.2,N
1536695715.9,286047007.2,N
1536695735.8,286047009.2,N
1536695755.6,286047009.0,N
1536695775.4,286047006.4,N
1536695795.3,286047009.2,N
1536695845.2,286047006.9,E
1536695855.1,286047003.2,N
1536695856.0,286047003.2,P
1536695875.8,286047000.0,P
1536695895.6,286047000.1,N
1536695915.5,286047000.8,N
1536695935.3,286047000.5,N
1536695955.2,286047000.6,N
1536695975.9,286047000.3,N
1536695995.7,286046999.8,N
